Regional Weather Roundup
Issued by NWS Cleveland, OH

Home | Current Version | Previous Version | Text Only | Print | Product List | Glossary On
Versions: 1 2 3 4 5 6 7 8 9 10 11 12 13 14 15 16 17 18 19 20 21 22 23 24 25 26 27 28 29 30 31 32 33 34 35 36 37 38 39 40 41 42 43 44 45 46 47 48 49 50
000
ASUS41 KCLE 230410
RWRCLE
OHIO REGIONAL WEATHER ROUNDUP
NATIONAL WEATHER SERVICE CLEVELAND, OH
1100 PM EST MON DEC 22 2014

NOTE: "FAIR" INDICATES FEW OR NO CLOUDS BELOW 12,000 FEET WITH NO
SIGNIFICANT WEATHER AND/OR OBSTRUCTIONS TO VISIBILITY.

OHZ001>008-015>018-024>027-034-035-043-044-230500-
   NORTHWEST OHIO

CITY           SKY/WX    TMP DP  RH WIND       PRES   REMARKS
DEFIANCE       CLOUDY    39  34  82 E14       29.77F
FINDLAY        CLOUDY    40  34  79 E10       29.77F
TOLEDO EXPRESS CLOUDY    38  34  85 E10       29.80F
TOLEDO EXEC    CLOUDY    39  33  79 E8        29.83F
LIMA           CLOUDY    44  36  73 SE12      29.75F
$$

OHZ009>014-019>023-028>033-038-089-230500-
   NORTHEAST OHIO

CITY           SKY/WX    TMP DP  RH WIND       PRES   REMARKS
CLE-HOPKINS    CLOUDY    41  32  70 SE9       29.90F
CLE-LAKEFRONT  CLOUDY    41  30  65 SE15      29.86F
CUY CO. ARPT   MOCLDY    39  32  75 SE17      29.89F
LORAIN-ELYRIA  CLOUDY    39  32  76 SE10      29.86F
ASHTABULA      PTCLDY    35  28  75 SE10      29.95F WCI  27
AKRON-CANTON   CLOUDY    39  30  70 E12       29.89F
WOOSTER        CLOUDY    39  32  76 SE12      29.87F
MANSFIELD      CLOUDY    40  33  76 SE10      29.83F
YOUNGSTOWN     CLOUDY    35  29  78 E10       29.93S WCI  27
$$

OHZ042-051>053-060>062-070>072-077>081-230500-
  SOUTHWEST OHIO

CITY           SKY/WX    TMP DP  RH WIND       PRES   REMARKS
CINC-COVINGTON LGT RAIN  47  39  74 S6        29.73R
CINC-LUNKEN    CLOUDY    44  38  79 CALM      29.74F
HAMILTON       CLOUDY    48  39  71 CALM      29.74S
DAYTON         CLOUDY    46  38  73 SE13      29.75S
WRIGHT-PAT AFB CLOUDY    46  38  73 SE9       29.75S
DAYTON GENERAL MOCLDY    48  39  71 SE10      29.72F
WILMINGTON     MOCLDY    44  37  76 SE10      29.75F
$$

OHZ036-037-039>041-045>050-054>059-063>069-073>076-082>088-230500-
  CENTRAL AND SOUTHEAST OHIO

CITY           SKY/WX    TMP DP  RH WIND       PRES   REMARKS
COLUMBUS       CLOUDY    46  36  68 E12       29.81F
OSU AIRPORT    CLOUDY    45  36  70 SE10      29.80F
BOLTON FIELD   CLOUDY    44  37  77 E7        29.80F
RICKENBACK AFB CLOUDY    44  37  77 E8        29.80F
NEWARK         CLOUDY    40  34  79 NE5       29.84S
MARION         MOCLDY    43  33  68 SE14      29.80F
LANCASTER      CLOUDY    60  38  43 SE7       29.83R
ZANESVILLE     CLOUDY    44  36  73 SE7       29.86S
NEW PHILLY     CLOUDY    42  33  70 E8        29.89F
$$


USA.gov is the U.S. government's official web portal to all federal, state and local government web resources and services.